Theta_e
302 302 303 303 303 303 303 304 304 304 304 304 304 305 305 306 307 310 319 319 324 330 328 326 325 325 327 330 339 337 337 339 341 347 343 347 345 342 344 346 348 349 350 348 348 349 349 343 343 348 350 344 340 340
301 302 302 302 303 303 303 304 304 304 305 305 304 304 304 304 306 310 317 315 315 322 328 326 325 325 325 325 326 326 340 339 339 344 348 343 344 344 344 345 341 345 343 350 351 351 346 344 346 342 342 342 340 340
300 300 301 301 302 303 303 304 304 304 305 303 304 304 304 304 306 307 313 315 318 325 325 325 323 323 322 323 324 328 328 333 335 335 342 342 346 341 341 342 339 338 340 344 349 346 344 343 340 340 340 341 340 340
299 300 300 299 300 300 301 302 302 302 302 303 303 304 304 305 306 306 312 315 316 325 325 323 319 322 321 322 323 324 325 325 330 332 335 338 338 332 337 336 338 338 343 345 347 345 342 340 340 341 341 340 339 337
299 299 300 300 300 300 300 301 301 301 301 302 303 304 305 305 306 307 312 315 317 323 327 324 322 320 320 319 324 325 323 325 329 332 334 334 334 333 332 331 333 336 343 339 339 346 343 344 341 340 340 338 338 338
299 299 300 300 300 301 300 300 300 300 301 301 303 305 305 306 306 313 328 318 317 319 327 325 322 321 324 324 324 324 324 326 328 330 331 330 328 332 336 339 338 335 338 338 341 341 343 342 341 339 340 339 339 339
298 299 300 300 301 301 301 300 300 300 302 304 305 305 306 306 309 316 325 321 318 320 327 328 323 324 325 325 326 327 326 328 328 329 330 330 331 329 331 334 335 335 336 337 339 341 343 342 342 340 339 337 335 335
299 300 301 301 301 301 301 300 302 305 305 305 305 306 307 314 313 316 316 315 316 321 324 329 327 323 326 328 330 328 330 330 331 330 330 330 332 331 331 330 331 335 337 338 340 338 340 340 339 338 335 334 334 334
300 299 299 301 301 301 300 301 305 305 306 306 306 310 315 317 322 322 314 315 316 322 327 324 327 327 329 330 331 331 331 331 330 330 330 330 328 331 329 332 335 338 338 340 338 338 339 339 337 336 335 334 335 334
301 301 299 299 299 300 300 304 304 305 306 306 310 318 327 321 312 313 318 325 325 326 326 328 326 327 329 331 331 331 331 330 332 330 332 332 328 329 333 337 339 339 338 337 339 340 339 338 337 336 335 334 333 331
301 301 301 300 300 300 303 304 304 306 308 310 312 316 311 312 318 322 326 326 325 325 326 327 326 325 324 331 331 333 331 330 330 331 331 331 334 333 339 341 339 337 337 337 338 337 336 336 336 336 334 333 331 332
301 301 301 300 300 300 304 303 303 306 307 307 305 306 311 321 325 326 326 326 326 328 329 329 331 326 322 324 333 334 332 333 331 334 334 333 335 343 340 339 337 337 336 336 335 336 335 335 333 333 332 332 332 333
301 301 302 301 300 303 303 303 303 304 307 309 311 318 320 320 328 325 325 325 329 331 334 331 333 330 327 323 330 337 336 332 336 337 335 333 347 340 339 337 336 335 335 335 334 333 333 333 331 331 332 332 333 333
301 301 301 302 301 303 302 301 303 305 308 314 317 316 317 319 318 321 324 327 325 325 327 329 333 335 328 325 329 338 335 336 334 333 334 336 346 341 338 337 337 336 335 335 335 334 333 333 332 332 332 332 332 332
301 302 301 302 300 300 300 301 302 307 310 314 317 318 320 321 323 323 321 322 323 323 326 329 333 335 333 331 331 335 337 336 334 333 333 345 343 341 339 338 337 336 336 336 333 333 332 332 331 331 331 331 330 330
301 302 304 300 300 300 300 303 308 309 311 313 314 317 321 323 322 322 321 322 321 323 326 330 335 337 336 331 333 330 332 333 334 337 342 344 342 341 339 338 337 336 336 334 333 332 331 331 331 330 329 329 329 328
301 304 303 301 300 301 303 307 309 311 312 314 316 315 317 321 322 322 321 320 319 326 331 334 335 335 334 334 330 331 330 331 337 341 340 341 342 340 339 338 337 335 333 332 332 331 331 329 329 328 329 327 326 324
303 304 303 301 301 303 307 309 311 311 313 314 315 315 317 317 318 319 319 318 320 323 326 332 333 337 335 333 332 332 333 339 340 340 340 340 340 340 337 336 334 333 332 331 330 329 328 328 329 328 327 324 323 322
303 303 303 301 301 303 307 310 311 313 314 314 315 315 316 315 315 316 316 316 318 319 321 327 334 335 334 333 334 335 334 338 339 339 339 339 338 338 336 334 333 332 331 330 328 326 326 326 326 325 323 322 320 319
301 301 300 300 301 306 307 310 311 314 314 315 314 314 314 315 315 315 315 315 316 319 323 327 329 330 334 334 334 335 335 337 337 339 339 338 336 335 334 332 331 331 329 327 325 322 322 322 322 322 320 320 318 318
302 303 304 305 306 306 307 310 312 313 314 315 314 316 316 316 316 316 315 315 316 318 320 323 326 329 332 332 333 334 333 336 337 337 337 337 334 332 333 332 331 329 328 326 324 321 319 320 320 319 319 319 318 319
303 301 304 305 306 308 308 307 311 312 313 313 313 313 314 315 316 316 316 316 316 316 318 321 326 329 330 333 335 335 335 334 335 332 331 331 334 333 332 331 330 330 328 326 322 321 320 320 321 320 319 318 316 317
301 303 305 306 308 308 310 309 312 312 313 314 314 315 316 317 317 317 316 315 316 320 323 324 324 325 327 331 332 331 331 333 334 336 332 332 331 331 331 330 330 330 329 326 322 320 320 321 320 318 317 317 316 316
303 305 307 309 309 310 309 312 312 313 314 316 316 316 316 317 319 320 319 317 319 323 322 324 325 326 327 331 336 330 326 320 326 332 332 330 333 332 331 330 330 329 330 327 323 321 321 320 319 317 318 318 317 317
306 307 307 307 309 311 312 314 314 313 316 317 317 316 318 319 320 320 319 319 322 324 325 325 325 324 327 326 327 329 328 327 332 334 330 329 330 331 331 331 331 331 329 328 326 322 321 320 318 317 317 315 314 315
306 308 310 311 312 312 312 314 315 315 313 315 316 318 320 321 320 319 321 322 322 322 322 323 323 324 324 327 328 328 329 330 330 333 330 329 328 327 330 331 330 328 328 327 326 323 319 318 317 316 316 313 312 312
309 311 310 308 309 310 312 313 314 314 314 316 314 317 320 320 320 322 322 321 323 320 320 320 323 322 321 320 320 321 323 328 331 329 328 328 328 328 328 329 329 326 327 325 320 317 317 316 314 313 313 314 313 313
309 309 311 312 312 313 314 316 316 317 317 317 317 313 318 319 320 319 320 318 318 319 319 320 321 321 321 321 320 321 320 322 325 324 324 323 323 323 322 321 319 318 318 316 317 317 317 315 313 313 313 312 311 310
312 311 312 314 315 315 315 316 314 312 314 315 318 317 318 316 313 313 312 311 317 317 318 317 319 320 320 318 319 320 320 323 326 328 327 325 322 318 318 318 318 317 316 315 314 314 314 312 311 311 311 310 309 308
313 313 314 315 316 316 316 314 316 315 315 316 316 317 314 312 309 308 308 308 309 309 309 310 313 319 320 321 320 318 318 322 325 324 325 322 319 316 315 314 313 312 311 311 310 310 310 310 309 309 309 308 308 308
311 312 313 313 314 313 314 314 314 315 315 313 313 312 312 311 308 306 307 308 307 306 307 307 305 304 306 307 314 319 317 316 320 320 318 317 315 314 314 315 315 313 312 311 311 310 310 310 309 309 309 308 307 306
312 313 313 314 314 314 315 316 315 314 315 315 315 316 316 314 311 311 306 306 305 305 304 304 304 304 304 305 308 312 315 317 317 316 317 318 317 316 315 316 316 315 313 311 311 310 310 309 309 308 308 307 305 305
314 315 314 314 315 316 316 316 315 316 315 315 317 315 312 311 312 310 307 306 306 306 305 305 305 306 307 307 311 315 315 315 316 317 316 316 316 315 315 314 313 311 310 310 309 309 309 308 307 307 305 305 304 304
Wind_Speed
13 14 15 17 18 19 20 21 21 22 23 24 23 22 22 22 21 14 5 3 5 4 7 4 3 4 3 4 8 8 2 4 5 5 4 2 9 3 2 2 3 8 11 10 10 12 6 7 8 3 5 7 9 11
14 15 16 16 17 18 20 21 22 22 23 23 24 22 21 22 19 13 4 3 5 5 6 8 14 14 10 4 2 5 10 5 3 2 2 3 10 6 3 3 1 3 2 3 5 5 3 4 5 4 6 10 10 10
16 17 18 18 17 18 19 21 23 23 23 24 23 22 20 20 17 11 8 8 5 4 7 6 5 2 7 16 13 3 2 4 4 2 3 4 5 5 5 6 3 2 2 1 3 4 4 4 5 7 10 11 11 10
16 17 18 18 18 17 19 21 23 24 25 25 24 23 21 20 16 12 6 5 5 4 4 1 1 3 1 5 12 14 2 4 4 2 3 4 4 3 2 2 11 1 6 5 4 3 3 5 9 9 11 11 11 8
16 17 17 19 21 21 21 21 22 23 25 26 26 24 21 19 16 11 10 6 6 5 4 6 16 3 3 6 8 10 13 8 2 4 5 4 1 4 1 3 5 6 5 5 2 11 6 13 12 13 12 11 10 8
17 17 18 18 20 22 24 24 24 25 26 27 27 23 20 17 13 4 4 4 6 3 4 4 4 2 2 3 8 10 8 6 5 4 4 2 1 3 4 6 2 6 1 4 3 4 3 14 14 13 12 10 8 7
15 15 17 18 20 22 26 27 26 27 28 28 25 21 16 13 5 5 4 2 7 2 3 4 3 4 2 4 4 4 8 5 6 6 5 4 3 4 5 9 4 2 3 4 6 11 12 16 13 12 13 12 11 10
14 13 16 18 21 23 27 28 27 29 31 27 21 15 8 1 6 4 3 1 4 5 3 4 3 3 2 5 5 3 6 6 6 5 2 5 3 3 5 5 7 3 4 7 11 4 12 13 15 14 14 12 9 7
15 14 15 17 20 24 26 26 27 33 30 19 10 1 2 2 4 3 4 3 4 4 4 3 3 2 1 2 0 4 4 6 3 6 5 3 6 6 4 6 6 6 7 9 9 11 16 16 15 13 11 8 6 4
16 16 17 18 21 22 24 22 30 35 18 9 3 4 4 2 5 1 2 4 5 5 4 4 1 3 3 2 5 4 4 5 5 5 3 5 11 11 5 2 4 8 6 14 17 15 16 15 13 11 8 5 4 2
18 18 18 19 20 22 19 24 29 30 14 6 5 2 7 7 4 4 3 4 4 4 4 4 5 7 2 4 4 2 4 4 5 5 5 5 5 8 6 6 8 9 12 11 9 12 13 13 12 10 8 5 4 3
18 18 18 18 20 19 15 20 25 18 13 11 9 8 5 3 4 4 4 3 5 2 4 3 1 3 2 3 4 4 4 4 5 6 4 4 3 5 8 10 11 12 11 11 13 13 12 12 10 8 6 5 5 5
17 18 17 18 20 12 15 19 21 22 13 2 3 3 1 3 1 5 6 4 3 2 1 0 1 2 3 4 4 4 5 6 4 5 6 3 7 7 9 12 13 12 13 14 14 14 14 12 8 6 6 6 5 5
17 19 18 18 13 12 16 20 22 19 4 3 2 4 4 4 4 2 2 3 4 3 3 4 4 3 2 4 3 4 2 3 6 7 8 5 9 11 11 12 14 15 14 14 13 12 11 10 9 7 6 6 7 7
16 19 17 11 11 17 19 20 20 7 3 2 2 3 4 2 3 1 1 2 2 4 4 4 4 3 4 4 4 2 4 5 5 8 5 6 12 13 13 14 14 13 12 11 11 9 9 9 8 8 8 8 8 9
14 15 4 8 16 18 18 17 5 2 2 3 3 4 3 4 4 4 2 1 3 5 4 4 4 3 6 4 5 9 5 5 5 2 5 10 13 13 14 13 12 11 11 11 10 10 10 9 8 9 9 9 8 9
13 5 7 13 17 18 15 3 1 2 3 3 4 5 5 4 4 2 2 3 6 5 4 2 5 6 4 5 10 3 10 5 5 4 5 10 15 15 14 13 11 13 11 11 10 10 9 9 10 10 9 8 9 10
7 8 11 13 16 12 3 2 2 2 4 5 5 2 3 4 5 5 3 3 4 3 4 2 4 4 4 4 3 1 1 3 3 4 6 11 14 13 14 13 14 13 12 11 11 10 9 9 9 8 10 9 10 11
10 12 12 11 9 5 3 2 3 3 5 4 5 5 5 6 5 6 7 6 6 5 5 3 5 5 6 1 0 4 2 1 3 5 9 12 16 14 14 15 14 12 12 12 11 9 9 8 6 10 11 12 10 10
11 11 10 7 3 2 2 2 3 4 4 2 4 6 6 6 6 6 7 7 6 5 6 5 6 6 4 4 5 4 4 3 5 8 10 9 13 14 13 12 11 13 12 11 9 8 10 9 9 9 10 9 9 9
4 2 4 3 4 4 3 3 3 3 5 4 5 5 5 5 7 8 8 8 8 8 9 8 6 4 2 3 8 5 3 3 7 6 10 11 12 13 12 11 13 12 10 10 8 9 8 9 10 10 10 8 7 5
1 4 3 3 2 2 3 3 4 5 3 5 6 6 5 6 7 7 6 7 10 9 8 8 3 4 3 3 4 2 2 8 6 10 13 14 10 9 8 13 11 8 9 9 8 10 11 10 10 9 7 7 5 5
2 2 2 2 3 2 3 3 3 3 4 3 3 3 4 4 3 1 4 6 7 1 3 4 6 8 7 2 5 5 13 5 5 9 16 17 14 13 13 14 12 10 8 10 10 11 11 10 10 8 7 5 6 5
2 2 2 2 3 3 2 3 3 2 3 4 3 4 4 3 2 3 7 8 3 1 2 4 4 5 5 5 5 6 11 8 14 10 11 17 7 8 9 9 11 10 8 11 12 11 11 12 11 9 5 1 1 4
2 3 2 4 4 3 4 3 2 1 4 4 4 5 1 1 3 4 7 2 4 4 3 4 2 1 5 4 1 4 14 20 14 12 8 9 12 11 8 7 6 7 10 13 13 14 12 10 10 9 7 5 4 2
2 3 3 3 1 2 2 3 2 3 3 2 4 5 3 3 4 4 1 2 3 3 2 2 3 4 4 5 5 3 2 6 8 7 6 5 7 7 7 7 6 6 9 9 12 12 14 13 12 10 7 10 9 8
2 1 1 2 3 3 4 5 4 3 4 3 3 3 3 4 3 2 3 3 3 3 4 4 6 3 3 6 7 7 7 5 1 7 9 8 7 4 6 6 6 7 9 12 15 16 17 14 12 7 8 6 6 6
2 3 4 2 3 4 4 4 1 2 3 1 2 1 6 8 5 6 6 14 13 10 8 6 5 3 4 4 3 2 3 10 15 17 18 16 13 11 13 15 18 19 18 21 18 16 15 15 12 10 8 9 8 5
3 2 3 8 4 4 3 2 3 2 2 2 3 1 1 1 5 4 10 20 5 3 3 2 0 2 4 4 6 6 8 10 14 15 15 11 8 13 17 21 17 15 19 19 15 11 11 13 12 11 10 8 6 5
2 2 4 4 3 3 4 3 3 3 2 3 2 1 3 5 17 19 19 19 15 9 6 7 8 4 5 6 8 8 8 5 4 9 10 12 14 18 15 23 24 17 14 13 15 15 16 15 13 10 7 6 5 5
3 3 2 3 3 2 3 5 3 1 4 5 6 8 6 0 8 24 24 23 21 21 19 19 18 17 17 15 11 9 7 11 12 17 23 26 29 27 20 16 18 17 14 14 15 14 12 10 8 8 8 7 6 6
3 2 3 3 2 3 3 4 3 3 2 1 2 1 0 2 6 3 12 16 21 20 20 20 18 16 20 17 19 18 21 23 26 27 21 20 22 21 15 12 12 13 13 13 13 12 10 8 8 8 7 6 6 5
4 3 3 3 2 2 2 1 1 3 4 3 5 8 9 9 11 8 13 16 15 14 12 12 18 19 19 20 20 17 18 18 15 16 17 18 18 17 14 13 14 16 15 14 13 12 11 9 8 7 6 5 5 4
Wind_Direction
341 340 342 343 342 340 337 337 338 346 346 347 349 351 353 353 353 359 284 274 308 302 287 273 285 287 170 217 179 135 109 283 196 233 192 321 299 68 246 114 146 190 200 214 230 227 215 154 150 249 91 139 147 152
344 340 339 339 338 339 339 337 336 337 338 341 343 346 350 352 348 359 295 312 287 260 305 299 277 267 272 307 312 155 216 144 338 153 63 156 292 285 1 332 175 207 359 21 346 41 89 137 59 116 138 139 144 145
333 334 331 330 329 332 334 334 334 333 336 338 339 342 343 345 343 340 298 301 270 268 271 238 237 218 237 236 235 265 142 127 199 355 163 177 243 314 252 305 295 154 206 59 217 102 102 127 123 135 137 135 139 134
330 331 335 341 332 325 324 325 326 328 333 336 337 338 336 334 331 323 279 288 280 286 280 128 148 257 274 222 218 231 30 150 104 188 207 214 228 192 296 291 248 24 179 136 103 134 148 163 153 142 133 130 122 120
331 333 329 335 340 338 333 332 333 331 331 332 333 333 329 323 318 312 267 257 236 298 322 304 307 303 260 215 211 210 219 235 207 199 205 231 204 208 215 235 220 189 164 222 266 159 217 160 162 155 144 135 131 128
331 330 336 335 335 339 340 334 331 330 329 329 328 326 321 312 314 293 219 206 209 240 279 284 25 229 275 237 211 210 215 220 224 251 235 211 34 263 235 244 269 203 214 341 338 149 125 147 151 150 136 131 128 128
317 325 332 335 337 336 338 335 331 329 329 328 324 317 307 298 264 257 358 80 173 280 261 284 255 130 201 175 162 178 200 202 229 225 238 256 188 242 267 257 212 254 214 153 137 129 128 146 151 138 131 122 122 114
331 326 330 334 335 333 335 336 335 333 331 325 319 311 308 149 147 200 201 147 186 259 254 275 269 233 191 195 175 193 174 196 191 235 170 227 153 237 255 260 274 203 186 175 173 216 155 132 135 133 132 135 136 127
334 326 324 330 333 331 335 338 339 337 333 327 323 334 136 210 211 95 215 250 220 280 294 248 278 67 162 199 147 175 231 196 109 222 228 232 231 230 272 249 221 203 188 167 164 129 137 141 135 134 137 137 134 129
332 332 331 329 330 336 340 344 344 342 337 351 30 226 170 88 307 146 157 198 197 193 226 259 342 258 304 174 189 188 206 225 207 199 112 236 249 243 247 244 206 181 180 164 149 147 142 138 136 138 138 124 113 128
330 331 334 337 338 341 348 352 348 355 11 13 353 354 327 316 199 212 208 223 162 222 207 246 271 273 140 273 213 227 205 198 240 188 223 213 239 208 177 178 159 165 163 159 150 144 139 135 136 137 136 132 131 137
323 327 331 333 336 340 347 347 346 1 344 307 298 299 293 237 212 228 205 171 222 245 156 244 78 238 224 300 256 186 219 195 239 134 212 240 194 129 161 153 150 151 146 139 131 120 120 121 127 129 135 128 119 116
319 322 323 326 331 333 337 338 341 338 337 247 244 251 281 167 186 222 191 190 208 164 133 296 244 229 178 227 252 224 216 221 125 204 223 244 115 141 147 149 148 142 135 126 121 119 120 119 121 124 126 127 128 127
312 319 316 322 326 326 330 331 335 340 300 288 297 305 229 180 231 238 266 26 39 289 327 313 275 250 172 202 247 228 164 192 224 226 218 192 156 150 153 151 144 141 137 133 130 129 127 126 119 119 123 138 136 135
311 316 312 323 322 323 316 320 326 322 286 277 260 243 222 343 241 271 334 250 57 329 310 283 235 250 187 235 210 225 197 232 216 227 218 116 151 155 155 157 148 141 137 135 136 135 129 129 125 124 128 134 135 134
312 317 293 300 321 325 325 323 318 272 242 255 238 252 220 248 194 194 182 324 26 325 282 236 262 240 219 222 196 214 226 221 191 160 108 140 152 154 156 150 147 140 138 135 137 136 133 135 138 126 130 129 137 137
305 265 297 316 323 329 325 310 261 220 298 248 227 226 265 289 286 298 306 336 334 287 273 295 239 218 325 227 224 228 231 277 101 128 138 151 156 155 149 137 137 136 136 139 133 135 132 136 135 139 136 141 139 138
268 290 304 322 332 332 305 243 240 236 253 240 250 202 220 267 282 279 273 311 313 320 290 289 317 246 248 242 246 148 95 69 43 114 134 147 147 143 144 138 140 140 138 138 136 136 141 146 156 146 143 147 148 145
275 288 295 313 328 318 303 240 255 261 240 263 266 263 263 274 276 281 275 274 266 283 287 247 257 241 251 336 338 49 49 164 130 129 130 138 143 141 139 138 140 142 142 140 146 152 149 163 152 150 154 166 160 160
284 293 292 284 258 273 269 237 210 271 272 12 282 264 266 271 279 270 265 257 253 245 224 224 247 284 316 342 328 348 314 92 153 155 147 147 147 141 143 147 145 142 143 141 144 144 147 153 155 157 159 169 160 166
311 276 308 217 205 235 283 288 242 256 306 276 304 293 277 248 243 244 239 236 224 227 236 246 247 262 305 326 293 350 293 256 192 196 160 152 154 148 147 145 154 161 158 163 164 159 176 158 155 159 162 183 197 218
263 310 312 185 246 219 242 255 286 317 265 282 290 256 266 259 252 243 238 236 231 236 230 266 327 309 270 277 353 10 92 191 135 106 116 135 158 155 161 162 170 170 173 173 171 166 171 162 163 169 182 179 201 209
314 299 251 246 252 227 253 224 253 232 258 273 248 245 233 233 230 155 241 231 231 141 338 296 294 288 277 246 138 109 68 331 202 182 147 162 173 168 168 169 171 180 177 176 178 173 175 166 172 183 180 208 220 223
296 274 253 263 228 264 245 235 232 252 272 255 253 261 255 247 291 251 252 240 162 102 226 266 292 272 215 225 203 168 153 49 329 254 164 148 136 196 194 177 177 180 177 184 181 171 172 183 171 187 201 184 354 303
263 229 206 253 219 253 233 232 233 226 260 232 249 252 305 249 241 241 242 241 203 221 225 194 223 357 306 308 65 175 158 165 193 222 177 149 137 138 140 144 161 169 184 191 186 181 175 161 165 143 137 136 112 106
234 207 202 307 317 265 268 258 242 346 333 276 301 319 292 259 243 245 257 219 204 200 240 308 309 324 321 338 320 279 168 230 241 181 157 153 147 158 157 160 167 179 198 191 182 164 147 152 156 151 148 130 122 128
296 268 259 243 257 275 265 245 231 230 229 234 220 266 268 244 246 76 20 7 339 297 329 308 283 277 278 296 301 292 294 307 74 140 119 111 107 118 146 162 150 137 163 160 141 143 145 137 126 137 142 150 161 167
274 263 266 263 256 238 269 300 343 295 292 262 218 219 321 353 336 343 323 320 309 292 291 260 256 249 256 296 290 212 141 132 128 120 108 89 84 90 100 105 113 121 123 131 132 133 133 129 150 188 161 129 116 94
256 238 262 279 246 223 217 250 196 240 249 275 308 336 322 105 327 326 326 329 342 4 44 3 282 162 93 88 102 109 137 169 166 156 129 121 116 102 116 118 116 118 123 122 123 138 147 136 131 122 115 108 101 83
335 326 292 287 301 349 52 3 306 284 246 250 261 108 73 24 10 16 8 7 19 26 33 35 29 82 120 137 114 80 52 26 8 195 147 134 127 126 126 117 117 116 127 130 121 117 121 120 121 121 121 116 97 74
321 296 286 309 315 325 310 312 294 15 17 43 53 80 72 153 18 17 10 19 31 44 55 51 42 44 49 40 42 80 74 60 83 97 115 123 125 119 117 132 131 128 130 132 130 129 130 120 111 109 99 86 72 40
298 278 313 297 310 335 342 14 7 30 53 94 23 344 24 59 65 59 16 24 22 24 30 40 35 36 51 64 72 76 79 78 89 108 111 114 115 122 131 120 116 116 124 126 119 118 113 111 107 104 101 78 67 67
280 278 270 284 277 323 13 33 73 51 76 85 56 58 53 51 51 40 47 48 56 67 68 66 70 68 60 63 80 94 90 94 96 104 108 113 108 107 109 109 110 115 115 112 111 111 107 106 100 93 88 86 85 77